Location: Unspecified
(0.0000°N, 0.0000°E)
Time: 09:06:40
(UTC+00:00)

Hubble Space Telescope - Visible Passes

Search period start: 03 April 2020 00:00
Search period end: 13 April 2020 00:00
Orbit: 536 x 540 km, 28.5° (Epoch: 02 April)

Date Brightness Start Highest point End Pass type
(mag) Time Alt. Az. Time Alt. Az. Time Alt. Az.
03 Apr 2.4 04:38:07 19° NNW 04:40:14 29° NNE 04:43:50 10° E visible
04 Apr 1.8 04:28:45 36° N 04:29:35 40° NNE 04:33:29 10° E visible
05 Apr 1.4 04:19:23 54° ENE 04:19:23 54° ENE 04:23:01 10° ESE visible
06 Apr 2.2 04:10:01 34° ESE 04:10:01 34° ESE 04:12:27 10° ESE visible
07 Apr 3.2 04:00:36 18° SE 04:00:36 18° SE 04:01:45 10° SE visible
07 Apr 2.9 05:37:24 10° SW 05:38:55 12° SSW 05:40:26 10° S visible
